Flag for Kenya Weather past 2 weeks in Nairobi, Kenya

Now
68 °F

Partly sunny.


Feels Like: 68 °F
Forecast: 59 / 76 °F
Wind: No wind

Location: Nairobi / Wilson

Current Time: May 26, 2015 at 1:05:52 PM

Latest Report: May 26, 2015 at 12:00 PM


Visibility: N/A

Pressure: 30.21 "Hg

Humidity: 78%

Dew point: 61 °F

Location of NairobiLocation

Historic Weather in Nairobi — Graph

°F

Nairobi temperature yesterday

Maximum temperature yesterday: 75 °F (at 3:00 PM)
Minimum temperature yesterday: 63 °F (at 5:00 AM)
Average temperature yesterday: 67 °F

Past Weeks' High & Low Weather Summary

 TemperatureHumidityPressure
High77 °F (May 11, 1:00 PM)100% (May 12, 3:00 AM)30.27 "Hg (May 12, 3:00 AM)
Low61 °F (May 22, 3:00 AM)50% (May 23, 4:00 PM)30.09 "Hg (May 11, 3:00 PM)
Average68 °F79%30.17 "Hg
* Reported May 11 11:00 AM — May 26 11:00 AM, Nairobi, Weather by CustomWeather, © 2015

Note: Actual official high and low records may vary slightly from our data, if they occured in-between our weather recording intervals... More about our weather records

Advertising

Nairobi weather history for previous 24 hours

 ConditionsComfort  
Time TempWeatherWind HumidityBarometerVisibility
11:00 AM
Tue, May 26
66 °FPartly sunny.8 mph83%30.24 "HgN/A
10:00 AM68 °FPartly sunny.No wind78%30.24 "HgN/A
9:00 AM66 °FPartly sunny.No wind88%30.21 "HgN/A
8:00 AM63 °FDrizzle. Mostly cloudy.No wind94%30.18 "HgN/A
7:00 AM61 °FDrizzle. Overcast.No wind100%30.18 "HgN/A
6:00 AM63 °FOvercast.No wind94%30.15 "HgN/A
5:00 AM63 °FOvercast.No wind94%30.12 "HgN/A
4:00 AM63 °FOvercast.No wind94%30.12 "HgN/A
3:00 AM63 °FOvercast.No wind94%30.12 "HgN/A
2:00 AM63 °FOvercast.No wind94%30.15 "HgN/A
1:00 AM63 °FOvercast.No wind94%30.15 "HgN/A
11:00 PM
Mon, May 25
64 °FDrizzle. Overcast.No wind88%30.15 "HgN/A
10:00 PM64 °FLight rain. Overcast.9 mph88%30.15 "HgN/A
9:00 PM64 °FLight rain. Overcast.No wind88%30.15 "HgN/A
8:00 PM66 °FPassing clouds.No wind88%30.09 "HgN/A
7:00 PM68 °FPassing clouds.8 mph83%30.12 "HgN/A
6:00 PM70 °FPartly sunny.12 mph73%30.12 "HgN/A
5:00 PM72 °FScattered showers. Partly sunny.14 mph65%30.09 "HgN/A
4:00 PM72 °FPartly sunny.7 mph65%30.12 "HgN/A
3:00 PM75 °FPartly sunny.7 mph54%30.12 "HgN/A
2:00 PM72 °FPartly sunny.No wind65%30.15 "HgN/A
1:00 PM70 °FPartly sunny.No wind69%30.18 "HgN/A
Weather by CustomWeather, © 2015

See weather overviewHow to use our weather pages